Flag for U.S.A. Weather past 2 weeks in Unalaska, Alaska, U.S.A.

51 °F

Partly sunny.

Feels Like: 48 °F
Forecast: 41 / 48 °F
Wind: 8 mph from Southwest

Location: Dutch Harbor

Current Time: Oct 6, 2015 at 4:24:50 PM

Latest Report: Oct 6, 2015 at 3:56 PM

Visibility: 10 mi

Pressure: 29.84 "Hg

Humidity: 61%

Dew point: 38 °F

Location of UnalaskaLocation

Historic Weather in Unalaska — Graph


Unalaska temperature yesterday

Maximum temperature yesterday: 56 °F (at 6:56 AM)
Minimum temperature yesterday: 50 °F (at 10:56 PM)
Average temperature yesterday: 53 °F

Past Weeks' High & Low Weather Summary

High68 °F (Sep 26, 2:59 PM)93% (Sep 28, 1:56 AM)30.54 "Hg (Sep 28, 1:56 AM)
Low43 °F (Sep 23, 4:56 AM)51% (Sep 28, 4:56 PM)29.52 "Hg (Sep 27, 8:56 AM)
Average51 °F73%30.07 "Hg
* Reported Sep 21 2:56 PM — Oct 6 2:56 PM, Unalaska, Weather by CustomWeather, © 2015

Note: Actual official high and low records may vary slightly from our data, if they occured in-between our weather recording intervals... More about our weather records


Unalaska weather history for previous 24 hours

Time TempWeatherWind HumidityBarometerVisibility
2:56 PM
Tue, Oct 6
51 °FPassing clouds.7 mph59%29.85 "Hg10 mi
1:56 PM50 °FScattered clouds.8 mph59%29.86 "Hg10 mi
12:56 PM50 °FPassing clouds.8 mph61%29.86 "Hg10 mi
11:56 AM49 °FScattered clouds.12 mph64%29.87 "Hg10 mi
10:56 AM47 °FLight rain. Partly sunny.8 mph74%29.87 "Hg10 mi
9:56 AM46 °FPassing clouds.No wind77%29.85 "Hg10 mi
8:56 AM47 °FLight rain. Overcast.No wind71%29.85 "Hg10 mi
7:56 AM47 °FOvercast.6 mph74%29.85 "Hg10 mi
6:56 AM47 °FPassing clouds.7 mph71%29.84 "Hg10 mi
5:56 AM48 °FOvercast.8 mph68%29.84 "Hg10 mi
4:56 AM48 °FMostly cloudy.3 mph68%29.84 "Hg10 mi
3:56 AM49 °FOvercast.6 mph66%29.84 "Hg10 mi
2:56 AM49 °FMostly cloudy.6 mph77%29.83 "Hg10 mi
1:56 AM49 °FLight rain. Overcast.9 mph77%29.83 "Hg10 mi
12:56 AM50 °FMostly cloudy.5 mph71%29.81 "Hg10 mi
11:56 PM
Mon, Oct 5
50 °FOvercast.14 mph68%29.80 "Hg10 mi
10:56 PM50 °FClear.13 mph71%29.79 "Hg10 mi
9:56 PM51 °FClear.13 mph63%29.77 "Hg10 mi
8:56 PM51 °FOvercast.6 mph69%29.76 "Hg10 mi
7:56 PM51 °FLight rain. Partly sunny.7 mph71%29.75 "Hg10 mi
6:56 PM51 °FLight rain. Mostly cloudy.10 mph74%29.75 "Hg10 mi
5:56 PM51 °FMostly cloudy.5 mph74%29.73 "Hg10 mi
4:56 PM52 °FPartly sunny.10 mph69%29.71 "Hg10 mi
Weather by CustomWeather, © 2015

See weather overviewHow to use our weather pages